Time,TemperatureF,DewpointF,PressureIn,WindDirection,WindDirectionDegrees,WindSpeedMPH,WindSpeedGustMPH,Humidity,HourlyPrecipIn,Conditions,Clouds,dailyrainin,SoftwareType,DateUTC
2013-01-24 00:02:00,40.0,11.0,-100.00,WSW,255,21.0,27.0,29,0.00,,,-99.99,,2013-01-24 07:02:00,
2013-01-24 00:12:00,40.0,11.0,-100.00,West,260,17.0,27.0,29,0.00,,,-99.99,,2013-01-24 07:12:00,
2013-01-24 00:22:00,39.0,11.0,-100.00,SW,225,17.0,30.0,30,0.00,,,-99.99,,2013-01-24 07:22:00,
2013-01-24 00:33:00,39.0,11.0,-100.00,WSW,240,18.0,27.0,30,0.00,,,-99.99,,2013-01-24 07:33:00,
2013-01-24 00:42:00,39.0,11.0,-100.00,SW,225,21.0,32.0,30,0.00,,,-99.99,,2013-01-24 07:42:00,
2013-01-24 00:52:00,39.0,11.0,-100.00,SW,230,22.0,30.0,30,0.00,,,-99.99,,2013-01-24 07:52:00,
2013-01-24 01:02:00,39.0,11.0,-100.00,WSW,240,25.0,34.0,30,0.00,,,-99.99,,2013-01-24 08:02:00,
2013-01-24 01:12:00,40.0,11.0,-100.00,WSW,240,25.0,35.0,30,0.00,,,-99.99,,2013-01-24 08:12:00,
2013-01-24 01:22:00,39.0,11.0,-100.00,WSW,240,27.0,38.0,30,0.00,,,-99.99,,2013-01-24 08:22:00,
2013-01-24 01:33:00,39.0,11.0,-100.00,SW,225,30.0,40.0,30,0.00,,,-99.99,,2013-01-24 08:33:00,
2013-01-24 01:42:00,39.0,11.0,-100.00,SW,225,31.0,45.0,30,0.00,,,-99.99,,2013-01-24 08:42:00,
2013-01-24 01:52:00,39.0,11.0,-100.00,SW,220,28.0,44.0,30,0.00,,,-99.99,,2013-01-24 08:52:00,
2013-01-24 02:03:00,39.0,11.0,-100.00,SW,225,28.0,35.0,30,0.00,,,-99.99,,2013-01-24 09:03:00,
2013-01-24 02:12:00,39.0,11.0,-100.00,WSW,240,29.0,44.0,30,0.00,,,-99.99,,2013-01-24 09:12:00,
2013-01-24 02:22:00,38.0,11.0,-100.00,WSW,250,24.0,35.0,31,0.00,,,-99.99,,2013-01-24 09:22:00,
2013-01-24 02:33:00,39.0,11.0,-100.00,WSW,240,27.0,35.0,31,0.00,,,-99.99,,2013-01-24 09:33:00,
2013-01-24 02:42:00,38.0,11.0,-100.00,SW,235,24.0,34.0,31,0.00,,,-99.99,,2013-01-24 09:42:00,
2013-01-24 02:52:00,38.0,11.0,-100.00,SW,230,25.0,35.0,31,0.00,,,-99.99,,2013-01-24 09:52:00,
2013-01-24 03:02:00,38.0,11.0,-100.00,SW,220,23.0,37.0,31,0.00,,,-99.99,,2013-01-24 10:02:00,
2013-01-24 03:12:00,38.0,11.0,-100.00,SW,235,27.0,37.0,31,0.00,,,-99.99,,2013-01-24 10:12:00,
2013-01-24 03:22:00,38.0,11.0,-100.00,SW,230,29.0,35.0,32,0.00,,,-99.99,,2013-01-24 10:22:00,
2013-01-24 03:33:00,38.0,11.0,-100.00,SW,225,29.0,35.0,32,0.00,,,-99.99,,2013-01-24 10:33:00,
2013-01-24 03:43:00,38.0,11.0,-100.00,SW,235,25.0,37.0,32,0.00,,,-99.99,,2013-01-24 10:43:00,
2013-01-24 03:52:00,38.0,11.0,-100.00,WSW,250,27.0,35.0,32,0.00,,,-99.99,,2013-01-24 10:52:00,
2013-01-24 04:02:00,38.0,11.0,-100.00,WSW,245,26.0,35.0,32,0.00,,,-99.99,,2013-01-24 11:02:00,
2013-01-24 04:12:00,37.0,11.0,-100.00,SW,230,24.0,35.0,32,0.00,,,-99.99,,2013-01-24 11:12:00,
2013-01-24 04:22:00,36.0,10.0,-100.00,West,265,27.0,34.0,33,0.00,,,-99.99,,2013-01-24 11:22:00,
2013-01-24 04:33:00,36.0,10.0,-100.00,WSW,250,26.0,33.0,34,0.00,,,-99.99,,2013-01-24 11:33:00,
2013-01-24 04:43:00,36.0,11.0,-100.00,SW,225,28.0,32.0,34,0.00,,,-99.99,,2013-01-24 11:43:00,
2013-01-24 04:52:00,36.0,11.0,-100.00,WSW,240,27.0,35.0,34,0.00,,,-99.99,,2013-01-24 11:52:00,
2013-01-24 05:03:00,36.0,11.0,-100.00,SW,235,27.0,35.0,34,0.00,,,-99.99,,2013-01-24 12:03:00,
2013-01-24 05:12:00,37.0,12.0,-100.00,SW,235,29.0,38.0,34,0.00,,,-99.99,,2013-01-24 12:12:00,
2013-01-24 05:22:00,37.0,12.0,-100.00,WSW,250,29.0,37.0,34,0.00,,,-99.99,,2013-01-24 12:22:00,
2013-01-24 05:33:00,37.0,12.0,-100.00,WSW,245,29.0,38.0,34,0.00,,,-99.99,,2013-01-24 12:33:00,
2013-01-24 05:42:00,37.0,12.0,-100.00,West,265,27.0,35.0,34,0.00,,,-99.99,,2013-01-24 12:42:00,
2013-01-24 05:53:00,37.0,12.0,-100.00,WSW,240,27.0,38.0,35,0.00,,,-99.99,,2013-01-24 12:53:00,
2013-01-24 06:03:00,37.0,12.0,-100.00,WSW,240,32.0,43.0,35,0.00,,,-99.99,,2013-01-24 13:03:00,
2013-01-24 06:12:00,37.0,12.0,-100.00,WSW,245,30.0,41.0,35,0.00,,,-99.99,,2013-01-24 13:12:00,
2013-01-24 06:22:00,37.0,12.0,-100.00,WSW,245,30.0,39.0,35,0.00,,,-99.99,,2013-01-24 13:22:00,
2013-01-24 06:33:00,37.0,12.0,-100.00,West,260,31.0,39.0,35,0.00,,,-99.99,,2013-01-24 13:33:00,
2013-01-24 06:42:00,38.0,13.0,-100.00,SW,225,32.0,40.0,35,0.00,,,-99.99,,2013-01-24 13:42:00,
2013-01-24 06:52:00,37.0,12.0,-100.00,SW,230,29.0,45.0,34,0.00,,,-99.99,,2013-01-24 13:52:00,
2013-01-24 07:02:00,37.0,12.0,-100.00,WSW,245,30.0,39.0,34,0.00,,,-99.99,,2013-01-24 14:02:00,
2013-01-24 07:12:00,37.0,12.0,-100.00,SW,235,30.0,42.0,34,0.00,,,-99.99,,2013-01-24 14:12:00,
2013-01-24 07:22:00,38.0,12.0,-100.00,WSW,250,34.0,47.0,34,0.00,,,-99.99,,2013-01-24 14:22:00,
2013-01-24 07:33:00,38.0,12.0,-100.00,WSW,255,32.0,45.0,34,0.00,,,-99.99,,2013-01-24 14:33:00,
2013-01-24 07:43:00,38.0,13.0,-100.00,SW,220,35.0,44.0,34,0.00,,,-99.99,,2013-01-24 14:43:00,
2013-01-24 07:53:00,38.0,13.0,-100.00,WSW,245,40.0,50.0,34,0.00,,,-99.99,,2013-01-24 14:53:00,
2013-01-24 08:03:00,38.0,13.0,-100.00,WSW,240,39.0,53.0,34,0.00,,,-99.99,,2013-01-24 15:03:00,
2013-01-24 08:12:00,38.0,13.0,-100.00,SW,225,39.0,50.0,34,0.00,,,-99.99,,2013-01-24 15:12:00,
2013-01-24 08:22:00,38.0,12.0,-100.00,WSW,245,40.0,54.0,34,0.00,,,-99.99,,2013-01-24 15:22:00,
2013-01-24 08:33:00,38.0,12.0,-100.00,SW,235,38.0,54.0,34,0.00,,,-99.99,,2013-01-24 15:33:00,
2013-01-24 08:43:00,38.0,13.0,-100.00,SW,235,37.0,49.0,34,0.00,,,-99.99,,2013-01-24 15:43:00,
2013-01-24 08:52:00,39.0,14.0,-100.00,SW,235,38.0,50.0,34,0.00,,,-99.99,,2013-01-24 15:52:00,
2013-01-24 09:03:00,40.0,14.0,-100.00,SW,230,45.0,57.0,35,0.00,,,-99.99,,2013-01-24 16:03:00,
2013-01-24 09:12:00,40.0,14.0,-100.00,SW,225,45.0,57.0,35,0.00,,,-99.99,,2013-01-24 16:12:00,
2013-01-24 09:22:00,39.0,14.0,-100.00,SW,235,45.0,55.0,35,0.00,,,-99.99,,2013-01-24 16:22:00,
2013-01-24 09:33:00,39.0,15.0,-100.00,WSW,245,45.0,57.0,35,0.00,,,-99.99,,2013-01-24 16:33:00,
2013-01-24 09:42:00,39.0,15.0,-100.00,WSW,245,45.0,57.0,35,0.00,,,-99.99,,2013-01-24 16:42:00,
2013-01-24 10:02:00,41.0,16.0,-100.00,WSW,245,44.0,57.0,35,0.00,,,-99.99,,2013-01-24 17:02:00,
2013-01-24 10:12:00,42.0,16.0,-100.00,WSW,250,47.0,58.0,35,0.00,,,-99.99,,2013-01-24 17:12:00,
2013-01-24 10:21:00,42.0,17.0,-100.00,WSW,250,44.0,58.0,35,0.00,,,-99.99,,2013-01-24 17:21:00,
2013-01-24 10:32:00,42.0,17.0,-100.00,WSW,245,46.0,55.0,35,0.00,,,-99.99,,2013-01-24 17:32:00,
2013-01-24 10:42:00,42.0,17.0,-100.00,SW,235,47.0,60.0,35,0.00,,,-99.99,,2013-01-24 17:42:00,
2013-01-24 10:52:00,42.0,17.0,-100.00,WSW,245,47.0,65.0,35,0.00,,,-99.99,,2013-01-24 17:52:00,
2013-01-24 11:02:00,42.0,17.0,-100.00,WSW,255,40.0,57.0,36,0.00,,,-99.99,,2013-01-24 18:02:00,
2013-01-24 11:12:00,42.0,18.0,-100.00,WSW,245,47.0,58.0,36,0.00,,,-99.99,,2013-01-24 18:12:00,
2013-01-24 11:22:00,42.0,18.0,-100.00,West,260,47.0,60.0,37,0.00,,,-99.99,,2013-01-24 18:22:00,
2013-01-24 11:32:00,42.0,18.0,-100.00,West,260,51.0,60.0,37,0.00,,,-99.99,,2013-01-24 18:32:00,
2013-01-24 11:42:00,42.0,19.0,-100.00,WSW,245,40.0,61.0,38,0.00,,,-99.99,,2013-01-24 18:42:00,
2013-01-24 11:52:00,43.0,20.0,-100.00,WSW,250,49.0,57.0,39,0.00,,,-99.99,,2013-01-24 18:52:00,
2013-01-24 12:02:00,42.0,20.0,-100.00,WSW,250,40.0,59.0,40,0.00,,,-99.99,,2013-01-24 19:02:00,
2013-01-24 12:12:00,40.0,19.0,-100.00,West,265,40.0,51.0,42,0.00,,,-99.99,,2013-01-24 19:12:00,
2013-01-24 12:22:00,40.0,19.0,-100.00,West,265,43.0,54.0,43,0.00,,,-99.99,,2013-01-24 19:22:00,
2013-01-24 12:33:00,39.0,19.0,-100.00,West,265,41.0,55.0,45,0.00,,,-99.99,,2013-01-24 19:33:00,
2013-01-24 12:42:00,39.0,21.0,-100.00,West,265,35.0,47.0,48,0.00,,,-99.99,,2013-01-24 19:42:00,
2013-01-24 12:52:00,38.0,24.0,-100.00,West,265,42.0,56.0,55,0.00,,,-99.99,,2013-01-24 19:52:00,
2013-01-24 13:02:00,37.0,26.0,-100.00,WSW,245,39.0,52.0,62,0.00,,,-99.99,,2013-01-24 20:02:00,
2013-01-24 13:11:00,37.0,27.0,-100.00,West,265,43.0,52.0,65,0.00,,,-99.99,,2013-01-24 20:11:00,
2013-01-24 13:22:00,37.0,28.0,-100.00,WSW,250,41.0,48.0,71,0.00,,,-99.99,,2013-01-24 20:22:00,
2013-01-24 13:32:00,37.0,30.0,-100.00,SW,235,32.0,49.0,76,0.00,,,-99.99,,2013-01-24 20:32:00,
2013-01-24 13:42:00,37.0,31.0,-100.00,WSW,240,37.0,50.0,77,0.00,,,-99.99,,2013-01-24 20:42:00,
2013-01-24 13:52:00,37.0,31.0,-100.00,WSW,240,34.0,42.0,79,0.00,,,-99.99,,2013-01-24 20:52:00,
2013-01-24 14:02:00,37.0,31.0,-100.00,SW,235,39.0,48.0,79,0.00,,,-99.99,,2013-01-24 21:02:00,
2013-01-24 14:12:00,37.0,31.0,-100.00,WSW,255,35.0,50.0,78,0.00,,,-99.99,,2013-01-24 21:12:00,
2013-01-24 14:22:00,37.0,32.0,-100.00,West,265,37.0,47.0,79,0.00,,,-99.99,,2013-01-24 21:22:00,
2013-01-24 14:33:00,37.0,32.0,-100.00,WSW,245,40.0,54.0,81,0.01,,,-99.99,,2013-01-24 21:33:00,
2013-01-24 14:42:00,37.0,32.0,-100.00,WSW,250,39.0,54.0,82,0.01,,,-99.99,,2013-01-24 21:42:00,
2013-01-24 14:52:00,37.0,33.0,-100.00,WSW,245,40.0,49.0,83,0.01,,,-99.99,,2013-01-24 21:52:00,
2013-01-24 15:03:00,37.0,32.0,-100.00,WSW,250,40.0,49.0,82,0.01,,,-99.99,,2013-01-24 22:03:00,
2013-01-24 15:12:00,37.0,32.0,-100.00,WSW,250,35.0,49.0,82,0.00,,,-99.99,,2013-01-24 22:12:00,
2013-01-24 15:22:00,37.0,32.0,-100.00,SW,230,34.0,46.0,81,0.00,,,-99.99,,2013-01-24 22:22:00,
2013-01-24 15:32:00,36.0,31.0,-100.00,WSW,240,40.0,49.0,81,0.04,,,-99.99,,2013-01-24 22:32:00,
2013-01-24 15:42:00,36.0,32.0,-100.00,WSW,240,39.0,51.0,85,0.13,,,-99.99,,2013-01-24 22:42:00,
2013-01-24 15:52:00,35.0,32.0,-100.00,WSW,240,45.0,54.0,88,0.04,,,-99.99,,2013-01-24 22:52:00,
2013-01-24 16:02:00,35.0,33.0,-100.00,SW,235,35.0,45.0,92,0.16,,,-99.99,,2013-01-24 23:02:00,
2013-01-24 16:12:00,34.0,33.0,-100.00,WSW,240,40.0,45.0,96,0.08,,,-99.99,,2013-01-24 23:12:00,
2013-01-24 16:22:00,33.0,33.0,-100.00,SW,235,35.0,49.0,97,0.21,,,-99.99,,2013-01-24 23:22:00,
2013-01-24 16:32:00,33.0,33.0,-100.00,SW,235,32.0,45.0,98,0.06,,,-99.99,,2013-01-24 23:32:00,
2013-01-24 16:42:00,33.0,33.0,-100.00,WSW,240,40.0,47.0,99,0.06,,,-99.99,,2013-01-24 23:42:00,
2013-01-24 16:52:00,33.0,32.0,-100.00,SW,230,35.0,47.0,98,0.04,,,-99.99,,2013-01-24 23:52:00,
2013-01-24 17:02:00,32.0,32.0,-100.00,SW,235,34.0,45.0,99,0.06,,,-99.99,,2013-01-25 00:02:00,
2013-01-24 17:12:00,32.0,32.0,-100.00,SW,235,33.0,45.0,99,0.07,,,-99.99,,2013-01-25 00:12:00,
2013-01-24 17:22:00,33.0,32.0,-100.00,SW,230,38.0,49.0,96,0.01,,,-99.99,,2013-01-25 00:22:00,
2013-01-24 17:32:00,33.0,32.0,-100.00,WSW,240,36.0,48.0,95,0.08,,,-99.99,,2013-01-25 00:32:00,
2013-01-24 17:41:00,33.0,32.0,-100.00,SW,230,32.0,45.0,95,0.08,,,-99.99,,2013-01-25 00:41:00,
2013-01-24 17:51:00,33.0,32.0,-100.00,SW,235,33.0,40.0,94,0.08,,,-99.99,,2013-01-25 00:51:00,
2013-01-24 18:01:00,34.0,32.0,-100.00,WSW,240,32.0,40.0,90,0.00,,,-99.99,,2013-01-25 01:01:00,
2013-01-24 18:12:00,35.0,32.0,-100.00,WSW,240,32.0,40.0,91,0.03,,,-99.99,,2013-01-25 01:12:00,
2013-01-24 18:21:00,35.0,32.0,-100.00,SW,230,32.0,42.0,91,0.00,,,-99.99,,2013-01-25 01:21:00,
2013-01-24 18:32:00,35.0,32.0,-100.00,WSW,240,32.0,39.0,89,0.00,,,-99.99,,2013-01-25 01:32:00,
2013-01-24 18:42:00,35.0,32.0,-100.00,SW,235,35.0,48.0,89,0.00,,,-99.99,,2013-01-25 01:42:00,
2013-01-24 18:52:00,35.0,32.0,-100.00,SW,230,35.0,46.0,90,0.00,,,-99.99,,2013-01-25 01:52:00,
2013-01-24 19:02:00,35.0,32.0,-100.00,SW,230,36.0,51.0,89,0.00,,,-99.99,,2013-01-25 02:02:00,
2013-01-24 19:11:00,35.0,32.0,-100.00,SW,225,38.0,54.0,88,0.03,,,-99.99,,2013-01-25 02:11:00,
2013-01-24 19:22:00,35.0,32.0,-100.00,SW,230,39.0,50.0,88,0.00,,,-99.99,,2013-01-25 02:22:00,
2013-01-24 19:32:00,35.0,32.0,-100.00,SW,225,34.0,44.0,88,0.00,,,-99.99,,2013-01-25 02:32:00,
2013-01-24 19:42:00,35.0,32.0,-100.00,SW,225,37.0,44.0,87,0.00,,,-99.99,,2013-01-25 02:42:00,
2013-01-24 19:52:00,35.0,32.0,-100.00,West,260,32.0,46.0,87,0.00,,,-99.99,,2013-01-25 02:52:00,
2013-01-24 20:02:00,35.0,32.0,-100.00,WSW,240,35.0,43.0,88,0.00,,,-99.99,,2013-01-25 03:02:00,
2013-01-24 20:12:00,35.0,32.0,-100.00,SW,230,35.0,45.0,88,0.00,,,-99.99,,2013-01-25 03:12:00,
2013-01-24 20:22:00,35.0,32.0,-100.00,SW,235,32.0,45.0,89,0.00,,,-99.99,,2013-01-25 03:22:00,
2013-01-24 20:33:00,35.0,32.0,-100.00,SW,220,38.0,46.0,89,0.00,,,-99.99,,2013-01-25 03:33:00,
2013-01-24 20:41:00,35.0,32.0,-100.00,SW,225,37.0,46.0,89,0.00,,,-99.99,,2013-01-25 03:41:00,
2013-01-24 20:52:00,35.0,32.0,-100.00,SSW,210,35.0,45.0,89,0.00,,,-99.99,,2013-01-25 03:52:00,
2013-01-24 21:02:00,35.0,32.0,-100.00,SW,235,37.0,46.0,88,0.00,,,-99.99,,2013-01-25 04:02:00,
2013-01-24 21:12:00,35.0,32.0,-100.00,WSW,245,34.0,43.0,87,0.00,,,-99.99,,2013-01-25 04:12:00,
2013-01-24 21:22:00,35.0,32.0,-100.00,WSW,240,39.0,45.0,87,0.00,,,-99.99,,2013-01-25 04:22:00,
2013-01-24 21:32:00,34.0,31.0,-100.00,West,265,37.0,45.0,87,0.00,,,-99.99,,2013-01-25 04:32:00,
2013-01-24 21:41:00,35.0,31.0,-100.00,SW,225,35.0,49.0,88,0.00,,,-99.99,,2013-01-25 04:41:00,
2013-01-24 21:51:00,35.0,31.0,-100.00,West,265,37.0,50.0,87,0.00,,,-99.99,,2013-01-25 04:51:00,
2013-01-24 22:03:00,35.0,31.0,-100.00,West,265,42.0,49.0,87,0.00,,,-99.99,,2013-01-25 05:03:00,
2013-01-24 22:12:00,35.0,31.0,-100.00,West,260,39.0,50.0,86,0.00,,,-99.99,,2013-01-25 05:12:00,
2013-01-24 22:22:00,34.0,31.0,-100.00,WSW,245,37.0,49.0,87,0.00,,,-99.99,,2013-01-25 05:22:00,
2013-01-24 22:32:00,34.0,31.0,-100.00,West,260,28.0,43.0,88,0.00,,,-99.99,,2013-01-25 05:32:00,
2013-01-24 22:43:00,34.0,31.0,-100.00,WSW,250,26.0,35.0,88,0.00,,,-99.99,,2013-01-25 05:43:00,
2013-01-24 22:52:00,34.0,31.0,-100.00,SW,230,21.0,32.0,88,0.00,,,-99.99,,2013-01-25 05:52:00,
2013-01-24 23:02:00,35.0,31.0,-100.00,WSW,255,21.0,33.0,88,0.00,,,-99.99,,2013-01-25 06:02:00,
2013-01-24 23:11:00,35.0,32.0,-100.00,West,265,25.0,31.0,88,0.00,,,-99.99,,2013-01-25 06:11:00,
2013-01-24 23:21:00,35.0,31.0,-100.00,West,265,26.0,38.0,87,0.00,,,-99.99,,2013-01-25 06:21:00,
2013-01-24 23:32:00,35.0,31.0,-100.00,West,265,28.0,34.0,87,0.00,,,-99.99,,2013-01-25 06:32:00,
2013-01-24 23:41:00,35.0,31.0,-100.00,West,265,26.0,36.0,87,0.00,,,-99.99,,2013-01-25 06:41:00,
2013-01-24 23:51:00,35.0,31.0,-100.00,West,260,30.0,43.0,87,0.00,,,-99.99,,2013-01-25 06:51:00,